| time (UTC) | temp C | wind direction | speed KPH | gust KPH | rain 1hr cm | rain 24hr cm | rain mn cm | humidity % | barometer mb |
| 20260504180646 | 26 | 197 | 14.5 | 17.7 | 0.00 | 0.00 | 0.00 | 44 | 1005.0 |
| 20260504180144 | 26 | 296 | 11.3 | 17.7 | 0.00 | 0.00 | 0.00 | 45 | 1005.4 |
| 20260504175641 | 26 | 189 | 9.7 | 20.9 | 0.00 | 0.00 | 0.00 | 46 | 1005.3 |
| 20260504175137 | 26 | 254 | 6.4 | 11.3 | 0.00 | 0.00 | 0.00 | 46 | 1005.3 |
| 20260504174636 | 25 | 235 | 14.5 | 27.4 | 0.00 | 0.00 | 0.00 | 47 | 1005.4 |
| 20260504174132 | 25 | 273 | 14.5 | 16.1 | 0.00 | 0.00 | 0.00 | 45 | 1005.6 |
| 20260504173629 | 25 | 127 | 11.3 | 16.1 | 0.00 | 0.00 | 0.00 | 45 | 1005.5 |
| 20260504173127 | 25 | 240 | 14.5 | 22.5 | 0.00 | 0.00 | 0.00 | 48 | 1005.7 |
| 20260504172623 | 26 | 215 | 14.5 | 24.1 | 0.00 | 0.00 | 0.00 | 47 | 1005.9 |
| 20260504172120 | 26 | 289 | 11.3 | 14.5 | 0.00 | 0.00 | 0.00 | 47 | 1005.6 |
| 20260504171616 | 25 | 173 | 4.8 | 6.4 | 0.00 | 0.00 | 0.00 | 49 | 1005.9 |
| 20260504171114 | 25 | 294 | 4.8 | 9.7 | 0.00 | 0.00 | 0.00 | 49 | 1005.8 |
| 20260504170609 | 25 | 229 | 9.7 | 12.9 | 0.00 | 0.00 | 0.00 | 47 | 1006.1 |
| 20260504170107 | 25 | 147 | 11.3 | 20.9 | 0.00 | 0.00 | 0.00 | 48 | 1005.9 |
| 20260504150953 | 22 | 201 | 6.4 | 12.9 | 0.00 | 0.00 | 0.00 | 62 | 1007.2 |
| 20260504150450 | 22 | 172 | 9.7 | 12.9 | 0.00 | 0.00 | 0.00 | 61 | 1007.2 |
| 20260504140916 | 20 | 221 | 3.2 | 3.2 | 0.00 | 0.00 | 0.00 | 69 | 1007.4 |
| 20260504140412 | 20 | 202 | 3.2 | 4.8 | 0.00 | 0.00 | 0.00 | 71 | 1007.3 |
| 20260504130337 | 17 | 193 | 9.7 | 12.9 | 0.00 | 0.00 | 0.00 | 76 | 1007.3 |
| 20260504120301 | 16 | 190 | 9.7 | 11.3 | 0.00 | 0.00 | 0.00 | 74 | 1007.4 |
| 20260504110224 | 16 | 206 | 3.2 | 3.2 | 0.00 | 0.00 | 0.00 | 73 | 1006.7 |
| 20260504100148 | 16 | 234 | 3.2 | 3.2 | 0.00 | 0.00 | 0.00 | 69 | 1006.5 |
| 20260504090111 | 16 | 194 | 8.0 | 11.3 | 0.00 | 0.00 | 0.00 | 66 | 1006.7 |
| 20260504081541 | 16 | 215 | 9.7 | 11.3 | 0.00 | 0.00 | 0.00 | 65 | 1006.9 |
| 20260504081037 | 16 | 194 | 3.2 | 6.4 | 0.00 | 0.00 | 0.00 | 65 | 1006.8 |
| 20260504080534 | 16 | 189 | 6.4 | 9.7 | 0.00 | 0.00 | 0.00 | 64 | 1007.0 |
| 20260504050346 | 16 | 228 | 8.0 | 14.5 | 0.00 | 0.00 | 0.00 | 58 | 1008.5 |
| 20260504045843 | 17 | 207 | 4.8 | 9.7 | 0.00 | 0.00 | 0.00 | 57 | 1008.5 |
| 20260504045338 | 17 | 264 | 11.3 | 14.5 | 0.00 | 0.00 | 0.00 | 57 | 1008.3 |
| 20260504044835 | 17 | 214 | 9.7 | 11.3 | 0.00 | 0.00 | 0.00 | 57 | 1008.4 |
| 20260504044333 | 17 | 194 | 6.4 | 9.7 | 0.00 | 0.00 | 0.00 | 56 | 1008.5 |
| 20260504043830 | 17 | 211 | 6.4 | 6.4 | 0.00 | 0.00 | 0.00 | 57 | 1008.7 |
| 20260504043327 | 17 | 221 | 9.7 | 16.1 | 0.00 | 0.00 | 0.00 | 56 | 1008.5 |
| 20260504042824 | 16 | 227 | 8.0 | 12.9 | 0.00 | 0.00 | 0.00 | 57 | 1008.6 |
| 20260504042320 | 17 | 205 | 9.7 | 11.3 | 0.00 | 0.00 | 0.00 | 56 | 1008.6 |
| 20260504041817 | 17 | 182 | 9.7 | 14.5 | 0.00 | 0.00 | 0.00 | 56 | 1008.5 |
| 20260504041313 | 17 | 240 | 11.3 | 14.5 | 0.00 | 0.00 | 0.00 | 55 | 1008.7 |
| 20260504040809 | 17 | 169 | 6.4 | 9.7 | 0.00 | 0.00 | 0.00 | 56 | 1008.7 |
| 20260504040307 | 17 | 233 | 6.4 | 9.7 | 0.00 | 0.00 | 0.00 | 55 | 1008.7 |
| 20260504035803 | 17 | 210 | 4.8 | 4.8 | 0.00 | 0.00 | 0.00 | 55 | 1008.7 |
| 20260504035300 | 17 | 197 | 6.4 | 9.7 | 0.00 | 0.00 | 0.00 | 54 | 1008.7 |
| 20260504034757 | 17 | 181 | 11.3 | 14.5 | 0.00 | 0.00 | 0.00 | 54 | 1008.8 |
| 20260504034255 | 17 | 170 | 3.2 | 4.8 | 0.00 | 0.00 | 0.00 | 54 | 1008.9 |
| 20260504033752 | 17 | 218 | 6.4 | 9.7 | 0.00 | 0.00 | 0.00 | 54 | 1008.8 |
| 20260504033249 | 17 | 241 | 9.7 | 12.9 | 0.00 | 0.00 | 0.00 | 53 | 1008.9 |
| 20260504032746 | 17 | 215 | 14.5 | 17.7 | 0.00 | 0.00 | 0.00 | 54 | 1009.0 |
| 20260504032243 | 17 | 171 | 3.2 | 4.8 | 0.00 | 0.00 | 0.00 | 54 | 1008.9 |
| 20260504031740 | 17 | 232 | 9.7 | 14.5 | 0.00 | 0.00 | 0.00 | 54 | 1009.0 |
| 20260504031238 | 17 | 204 | 6.4 | 9.7 | 0.00 | 0.00 | 0.00 | 54 | 1009.0 |
| 20260504030733 | 17 | 200 | 8.0 | 11.3 | 0.00 | 0.00 | 0.00 | 54 | 1009.2 |
| 20260504030231 | 17 | 203 | 8.0 | 9.7 | 0.00 | 0.00 | 0.00 | 53 | 1009.2 |
| 20260504025727 | 17 | 186 | 8.0 | 9.7 | 0.00 | 0.00 | 0.00 | 53 | 1009.2 |
| 20260504025224 | 17 | 198 | 3.2 | 4.8 | 0.00 | 0.00 | 0.00 | 54 | 1009.1 |
| 20260504024721 | 17 | 176 | 6.4 | 6.4 | 0.00 | 0.00 | 0.00 | 54 | 1009.0 |
| 20260504024217 | 17 | 205 | 12.9 | 14.5 | 0.00 | 0.00 | 0.00 | 53 | 1009.0 |
| 20260504023714 | 17 | 197 | 6.4 | 9.7 | 0.00 | 0.00 | 0.00 | 53 | 1008.8 |
| 20260504023210 | 17 | 206 | 3.2 | 4.8 | 0.00 | 0.00 | 0.00 | 53 | 1009.1 |
| 20260504022706 | 17 | 201 | 6.4 | 6.4 | 0.00 | 0.00 | 0.00 | 54 | 1009.3 |
| 20260504022203 | 17 | 217 | 4.8 | 4.8 | 0.00 | 0.00 | 0.00 | 53 | 1009.0 |
| 20260504021701 | 17 | 172 | 9.7 | 11.3 | 0.00 | 0.00 | 0.00 | 52 | 1009.2 |
| 20260504021157 | 17 | 197 | 6.4 | 9.7 | 0.00 | 0.00 | 0.00 | 53 | 1008.9 |
| 20260504020654 | 17 | 203 | 3.2 | 3.2 | 0.00 | 0.00 | 0.00 | 52 | 1008.8 |
| 20260504020150 | 17 | 215 | 8.0 | 11.3 | 0.00 | 0.00 | 0.00 | 51 | 1009.0 |
| 20260504015647 | 17 | 203 | 3.2 | 3.2 | 0.00 | 0.00 | 0.00 | 52 | 1009.0 |
| 20260504015143 | 17 | 209 | 3.2 | 4.8 | 0.00 | 0.00 | 0.00 | 51 | 1008.8 |
| 20260504014639 | 17 | 175 | 4.8 | 6.4 | 0.00 | 0.00 | 0.00 | 50 | 1008.8 |
| 20260504014136 | 17 | 226 | 3.2 | 3.2 | 0.00 | 0.00 | 0.00 | 50 | 1008.8 |
| 20260504013634 | 18 | 193 | 3.2 | 4.8 | 0.00 | 0.00 | 0.00 | 50 | 1008.8 |
| 20260504013131 | 18 | 189 | 4.8 | 4.8 | 0.00 | 0.00 | 0.00 | 49 | 1009.0 |
| 20260504012628 | 18 | 214 | 4.8 | 6.4 | 0.00 | 0.00 | 0.00 | 49 | 1008.8 |
| 20260504012126 | 18 | 194 | 9.7 | 12.9 | 0.00 | 0.00 | 0.00 | 48 | 1008.6 |
| 20260504011622 | 18 | 208 | 3.2 | 3.2 | 0.00 | 0.00 | 0.00 | 48 | 1008.8 |
| 20260504011119 | 18 | 200 | 8.0 | 9.7 | 0.00 | 0.00 | 0.00 | 47 | 1008.8 |
| 20260504010614 | 18 | 212 | 6.4 | 9.7 | 0.00 | 0.00 | 0.00 | 47 | 1008.7 |
| 20260504010111 | 18 | 208 | 6.4 | 9.7 | 0.00 | 0.00 | 0.00 | 47 | 1008.7 |
| 20260504005608 | 19 | 253 | 6.4 | 9.7 | 0.00 | 0.00 | 0.00 | 48 | 1008.7 |
| 20260504005105 | 19 | 210 | 8.0 | 9.7 | 0.00 | 0.00 | 0.00 | 47 | 1008.7 |
| 20260504004603 | 19 | 174 | 9.7 | 11.3 | 0.00 | 0.00 | 0.00 | 47 | 1008.5 |
| 20260504004100 | 19 | 202 | 6.4 | 6.4 | 0.00 | 0.00 | 0.00 | 46 | 1008.5 |
| 20260504003556 | 20 | 198 | 6.4 | 6.4 | 0.00 | 0.00 | 0.00 | 45 | 1008.6 |
| 20260504003053 | 20 | 198 | 6.4 | 6.4 | 0.00 | 0.00 | 0.00 | 45 | 1008.7 |
| 20260504002549 | 20 | 187 | 4.8 | 6.4 | 0.00 | 0.00 | 0.00 | 44 | 1008.8 |
| 20260504002047 | 20 | 221 | 3.2 | 4.8 | 0.00 | 0.00 | 0.00 | 44 | 1008.8 |
| 20260504001544 | 20 | 220 | 3.2 | 3.2 | 0.00 | 0.00 | 0.00 | 43 | 1008.7 |
| 20260504001040 | 20 | 216 | 4.8 | 4.8 | 0.00 | 0.00 | 0.00 | 43 | 1008.8 |
| 20260504000538 | 20 | 266 | 4.8 | 6.4 | 0.00 | 0.00 | 0.00 | 43 | 1008.9 |
| 20260504000035 | 20 | 189 | 14.5 | 14.5 | 0.00 | 0.00 | 0.00 | 42 | 1009.0 |
| 20260503235533 | 21 | 202 | 11.3 | 14.5 | 0.00 | 0.00 | 0.00 | 42 | 1008.9 |
| 20260503235029 | 21 | 231 | 6.4 | 9.7 | 0.00 | 0.00 | 0.00 | 42 | 1009.1 |
| 20260503234527 | 21 | 314 | 6.4 | 6.4 | 0.00 | 0.00 | 0.00 | 43 | 1008.9 |
| 20260503234025 | 21 | 196 | 1.6 | 4.8 | 0.00 | 0.00 | 0.00 | 43 | 1009.1 |
| 20260503233521 | 21 | 236 | 8.0 | 11.3 | 0.00 | 0.00 | 0.00 | 42 | 1009.3 |
| 20260503233017 | 21 | 172 | 4.8 | 4.8 | 0.00 | 0.00 | 0.00 | 41 | 1009.4 |
| 20260503232515 | 21 | 209 | 4.8 | 4.8 | 0.00 | 0.00 | 0.00 | 41 | 1009.2 |
| 20260503232012 | 21 | 207 | 9.7 | 12.9 | 0.00 | 0.00 | 0.00 | 41 | 1009.0 |
| 20260503231510 | 21 | 204 | 14.5 | 22.5 | 0.00 | 0.00 | 0.00 | 41 | 1009.3 |
| 20260503231006 | 21 | 229 | 12.9 | 14.5 | 0.00 | 0.00 | 0.00 | 40 | 1009.3 |
| 20260503230503 | 21 | 219 | 9.7 | 14.5 | 0.00 | 0.00 | 0.00 | 40 | 1009.3 |
| 20260503230000 | 21 | 198 | 12.9 | 14.5 | 0.00 | 0.00 | 0.00 | 41 | 1009.4 |
| 20260503225457 | 21 | 215 | 8.0 | 11.3 | 0.00 | 0.00 | 0.00 | 41 | 1009.8 |
| 20260503224952 | 22 | 223 | 6.4 | 9.7 | 0.00 | 0.00 | 0.00 | 40 | 1009.6 |
| 20260503224450 | 22 | 229 | 1.6 | 3.2 | 0.00 | 0.00 | 0.00 | 41 | 1009.7 |
| 20260503223948 | 21 | 203 | 3.2 | 3.2 | 0.00 | 0.00 | 0.00 | 40 | 1009.8 |
| 20260503223445 | 21 | 186 | 9.7 | 11.3 | 0.00 | 0.00 | 0.00 | 40 | 1009.7 |
| 20260503222941 | 21 | 206 | 14.5 | 22.5 | 0.00 | 0.00 | 0.00 | 39 | 1009.9 |
| 20260503222439 | 22 | 234 | 8.0 | 12.9 | 0.00 | 0.00 | 0.00 | 39 | 1009.8 |
| 20260503221937 | 21 | 213 | 17.7 | 22.5 | 0.00 | 0.00 | 0.00 | 38 | 1009.9 |
| 20260503221435 | 22 | 200 | 6.4 | 9.7 | 0.00 | 0.00 | 0.00 | 39 | 1009.9 |
| 20260503220932 | 21 | 236 | 9.7 | 12.9 | 0.00 | 0.00 | 0.00 | 39 | 1010.1 |
| 20260503220428 | 22 | 193 | 6.4 | 9.7 | 0.00 | 0.00 | 0.00 | 40 | 1010.2 |
| 20260503215925 | 22 | 184 | 8.0 | 11.3 | 0.00 | 0.00 | 0.00 | 40 | 1010.0 |
| 20260503215422 | 22 | 228 | 9.7 | 14.5 | 0.00 | 0.00 | 0.00 | 38 | 1010.1 |
| 20260503214920 | 22 | 216 | 9.7 | 12.9 | 0.00 | 0.00 | 0.00 | 37 | 1010.2 |
| 20260503214417 | 22 | 252 | 4.8 | 9.7 | 0.00 | 0.00 | 0.00 | 38 | 1010.4 |
| 20260503213914 | 21 | 207 | 6.4 | 11.3 | 0.00 | 0.00 | 0.00 | 37 | 1010.7 |
| 20260503213412 | 22 | 187 | 16.1 | 24.1 | 0.00 | 0.00 | 0.00 | 39 | 1010.4 |
| 20260503212908 | 22 | 212 | 4.8 | 6.4 | 0.00 | 0.00 | 0.00 | 37 | 1010.7 |
| 20260503212406 | 22 | 278 | 4.8 | 4.8 | 0.00 | 0.00 | 0.00 | 37 | 1010.5 |
| 20260503211904 | 21 | 207 | 9.7 | 12.9 | 0.00 | 0.00 | 0.00 | 38 | 1010.6 |
| 20260503211400 | 21 | 214 | 11.3 | 14.5 | 0.00 | 0.00 | 0.00 | 40 | 1010.7 |
| 20260503210855 | 21 | 221 | 14.5 | 17.7 | 0.00 | 0.00 | 0.00 | 39 | 1010.9 |
| 20260503210353 | 21 | 220 | 3.2 | 4.8 | 0.00 | 0.00 | 0.00 | 38 | 1011.1 |
| 20260503205847 | 21 | 191 | 6.4 | 6.4 | 0.00 | 0.00 | 0.00 | 39 | 1011.0 |
| 20260503205345 | 21 | 221 | 9.7 | 11.3 | 0.00 | 0.00 | 0.00 | 38 | 1011.3 |
| 20260503204841 | 21 | 184 | 8.0 | 14.5 | 0.00 | 0.00 | 0.00 | 39 | 1011.4 |
| 20260503204338 | 22 | 218 | 11.3 | 16.1 | 0.00 | 0.00 | 0.00 | 40 | 1011.3 |
| 20260503203835 | 21 | 282 | 9.7 | 16.1 | 0.00 | 0.00 | 0.00 | 37 | 1011.7 |
| 20260503203333 | 21 | 205 | 4.8 | 9.7 | 0.00 | 0.00 | 0.00 | 40 | 1011.7 |
| 20260503202830 | 21 | 139 | 9.7 | 12.9 | 0.00 | 0.00 | 0.00 | 40 | 1011.8 |
| 20260503202328 | 21 | 253 | 4.8 | 6.4 | 0.00 | 0.00 | 0.00 | 41 | 1012.0 |
| 20260503201826 | 21 | 196 | 11.3 | 12.9 | 0.00 | 0.00 | 0.00 | 40 | 1012.1 |
| 20260503201322 | 21 | 187 | 14.5 | 17.7 | 0.00 | 0.00 | 0.00 | 39 | 1012.1 |
| 20260503200820 | 21 | 182 | 8.0 | 11.3 | 0.00 | 0.00 | 0.00 | 41 | 1012.3 |
| 20260503200316 | 21 | 208 | 9.7 | 17.7 | 0.00 | 0.00 | 0.00 | 40 | 1012.5 |
| 20260503195813 | 21 | 271 | 12.9 | 20.9 | 0.00 | 0.00 | 0.00 | 41 | 1012.5 |
| 20260503195310 | 21 | 259 | 4.8 | 6.4 | 0.00 | 0.00 | 0.00 | 40 | 1012.5 |
| 20260503194807 | 20 | 227 | 12.9 | 14.5 | 0.00 | 0.00 | 0.00 | 41 | 1012.8 |
| 20260503194303 | 21 | 155 | 4.8 | 6.4 | 0.00 | 0.00 | 0.00 | 42 | 1012.9 |
| 20260503193759 | 20 | 292 | 4.8 | 6.4 | 0.00 | 0.00 | 0.00 | 41 | 1013.2 |
| 20260503193255 | 21 | 240 | 4.8 | 6.4 | 0.00 | 0.00 | 0.00 | 39 | 1013.2 |
| 20260503192751 | 21 | 264 | 6.4 | 9.7 | 0.00 | 0.00 | 0.00 | 41 | 1013.2 |
| 20260503192246 | 20 | 207 | 3.2 | 4.8 | 0.00 | 0.00 | 0.00 | 43 | 1013.7 |
| 20260503191743 | 20 | 282 | 4.8 | 6.4 | 0.00 | 0.00 | 0.00 | 44 | 1013.7 |
| 20260503191240 | 20 | 264 | 11.3 | 22.5 | 0.00 | 0.00 | 0.00 | 41 | 1013.6 |
| 20260503190737 | 20 | 235 | 12.9 | 17.7 | 0.00 | 0.00 | 0.00 | 40 | 1013.7 |
| 20260503190234 | 20 | 260 | 9.7 | 12.9 | 0.00 | 0.00 | 0.00 | 42 | 1013.7 |
| 20260503185731 | 20 | 195 | 14.5 | 17.7 | 0.00 | 0.00 | 0.00 | 40 | 1013.4 |
| 20260503185227 | 20 | 247 | 11.3 | 14.5 | 0.00 | 0.00 | 0.00 | 42 | 1013.8 |
| 20260503184721 | 20 | 222 | 14.5 | 17.7 | 0.00 | 0.00 | 0.00 | 44 | 1013.9 |
| 20260503184218 | 20 | 188 | 12.9 | 16.1 | 0.00 | 0.00 | 0.00 | 43 | 1014.0 |
| 20260503183714 | 20 | 191 | 11.3 | 14.5 | 0.00 | 0.00 | 0.00 | 44 | 1014.2 |
| 20260503183212 | 20 | 207 | 6.4 | 9.7 | 0.00 | 0.00 | 0.00 | 42 | 1014.4 |
| 20260503182710 | 19 | 257 | 6.4 | 11.3 | 0.00 | 0.00 | 0.00 | 44 | 1014.4 |
| 20260503182208 | 18 | 211 | 9.7 | 14.5 | 0.00 | 0.00 | 0.00 | 43 | 1014.2 |
| 20260503181704 | 19 | 191 | 4.8 | 9.7 | 0.00 | 0.00 | 0.00 | 44 | 1014.7 |
| 20260503181201 | 19 | 274 | 6.4 | 6.4 | 0.00 | 0.00 | 0.00 | 46 | 1014.6 |